Overview Statistics Trail Chart Weather Telemetry Raw packets
 

This is the latest recevied weather packets stored in our database for station/object IW1CBG-3. If no packets are shown the sender has not sent any weather packets the latest 10 day(s).

<< 19 20 21 22 23 24 25 >>
Time Temp. Humidity Pressure Rain* Wind** Luminosity Snow
1788380797 18.89° C 96% 1029.9 hPa 0 mm - - -
1788380177 18.89° C 96% 1030 hPa 0 mm - - -
1788379577 18.89° C 96% 1029.6 hPa 0 mm - - -
1788378976 19.44° C 96% 1029.3 hPa 0 mm - - -
1788378376 19.44° C 96% 1029.5 hPa 0 mm - - -
1788377777 19.44° C 96% 1029.3 hPa 0 mm - - -
1788377177 19.44° C 95% 1029.1 hPa 0 mm - - -
1788376576 20° C 95% 1029.2 hPa 0 mm - - -
1788375977 20° C 95% 1028.7 hPa 0 mm - - -
1788375376 20° C 94% 1028.7 hPa 0 mm - - -
1788374777 20° C 94% 1028.6 hPa 0 mm - - -
1788374177 20° C 94% 1028.7 hPa 0 mm - - -
1788373576 20.56° C 93% 1028.5 hPa 0 mm - - -
1788372977 20.56° C 92% 1028.2 hPa 0 mm - - -
1788372377 21.11° C 92% 1028.2 hPa 0 mm - - -
1788371777 21.67° C 90% 1027.8 hPa 0 mm - - -
1788371177 21.67° C 89% 1027.9 hPa 0 mm - - -
1788370577 22.78° C 87% 1027.5 hPa 0 mm - - -
1788369977 22.78° C 87% 1027.5 hPa 0 mm - - -
1788369378 22.78° C 86% 1027.4 hPa 0 mm - - -
1788368778 22.78° C 85% 1027.3 hPa 0 mm - - -
1788368177 22.78° C 84% 1027.5 hPa 0 mm - - -
1788367577 23.33° C 82% 1026.9 hPa 0 mm - - -
1788366976 23.33° C 82% 1027.1 hPa 0 mm - - -
1788366377 23.33° C 81% 1027.1 hPa 0 mm - - -

* Rain latest hour (hover to see other rain measurements)
** Current wind speed in m/s (hover to see current wind gust speed)